Home   Weather   Varese   Past weeks

Flag for Italy Past Weather in Varese, Italy — Yesterday and Last 2 Weeks

Now
65 °F

Mild.


Feels Like: 65 °F
Forecast: 62 / 80 °F
Wind: 2 mph from Southwest

Location: Stabio

Current Time: Aug 31, 2016 at 11:50:41 PM

Latest Report: Aug 31, 2016 at 10:00 PM


Visibility: N/A

Pressure: 30.14 "Hg

Humidity: 90%

Dew Point: 62 °F

Location of VareseLocation

Past Weather in Varese — Graph

°F

Varese Temperature Yesterday

Maximum temperature yesterday: 73 °F (at 5:00 PM)
Minimum temperature yesterday: 64 °F (at 7:00 AM)
Average temperature yesterday: 68 °F

High & Low Weather Summary for the Past Weeks

 TemperatureHumidityPressure
High85 °F (Aug 28, 4:00 PM)100% (Aug 20, 1:00 PM)30.32 "Hg (Aug 20, 1:00 PM)
Low54 °F (Aug 23, 7:00 AM)31% (Aug 22, 1:00 AM)29.75 "Hg (Aug 17, 6:00 PM)
Average69 °F80%30.06 "Hg
* Reported Aug 16 10:00 PM — Aug 31 10:00 PM, Varese, Weather by CustomWeather, © 2016

Note: Actual official high and low records may vary slightly from our data, if they occured in-between our weather recording intervals... More about our weather records

Advertising

Varese Weather History for the Previous 24 Hours

Scroll right to see more
 ConditionsComfort  
Time TempWeatherWind HumidityBarometerVisibility
10:00 PM
Wed, Aug 31
65 °FMild.2 mph90%30.14 "HgN/A
9:00 PM66 °FMild.1 mph86%30.13 "HgN/A
8:00 PM69 °FMild.1 mph79%30.09 "HgN/A
7:00 PM75 °FMild.2 mph71%30.06 "HgN/A
6:00 PM79 °FWarm.5 mph54%30.06 "HgN/A
5:00 PM79 °FWarm.5 mph55%30.07 "HgN/A
4:00 PM80 °FWarm.3 mph55%30.08 "HgN/A
2:00 PM78 °FWarm.3 mph54%30.13 "HgN/A
1:00 PM77 °FWarm.2 mph59%30.15 "HgN/A
12:00 PM76 °FMild.3 mph58%30.16 "HgN/A
11:00 AM73 °FMild.2 mph68%30.17 "HgN/A
10:00 AM72 °FMild.2 mph71%30.16 "HgN/A
9:00 AM70 °FMild.2 mph79%30.16 "HgN/A
8:00 AM66 °FMild.No wind90%30.16 "HgN/A
7:00 AM64 °FMild.2 mph97%30.15 "HgN/A
6:00 AM63 °FMild.2 mph98%30.15 "HgN/A
5:00 AM64 °FMild.2 mph97%30.15 "HgN/A
4:00 AM64 °FMild.2 mph97%30.16 "HgN/A
3:00 AM63 °FMild.2 mph98%30.16 "HgN/A
2:00 AM64 °FMild.1 mph96%30.16 "HgN/A
1:00 AM64 °FMild.1 mph93%30.17 "HgN/A
12:00 AM64 °FMild.2 mph96%30.16 "HgN/A
11:00 PM
Tue, Aug 30
65 °FMild.2 mph93%30.16 "HgN/A
Weather by CustomWeather, © 2016

See weather overviewHow to use our weather pages